EN

Hourly Weather Alsace

Today, 22 January, Friday

Time Temperature Precipitation Wind Pressure Humidity
00:00 +5°C° 0.7 mm 6 mps 726 mmHg 89%
01:00 +5°C° 0.1 mm 6 mps 726 mmHg 88%
02:00 +5°C° 0.1 mm 6 mps 725 mmHg 87%
03:00 +5°C° 0.1 mm 6 mps 725 mmHg 86%
04:00 +5°C° 0.2 mm 6 mps 725 mmHg 86%
05:00 +5°C° 0.2 mm 6 mps 725 mmHg 86%
06:00 +5°C° 0.2 mm 6 mps 724 mmHg 87%
07:00 +6°C° 0.2 mm 5 mps 724 mmHg 87%
08:00 +6°C° 0.2 mm 5 mps 724 mmHg 87%
09:00 +6°C° 0.2 mm 4 mps 724 mmHg 87%
10:00 +7°C° 0.1 mm 4 mps 724 mmHg 84%
11:00 +9°C° 0.1 mm 3 mps 724 mmHg 81%
12:00 +10°C° 0.1 mm 2 mps 724 mmHg 77%
13:00 +9°C° 0.1 mm 2 mps 724 mmHg 80%
14:00 +9°C° 0.1 mm 2 mps 723 mmHg 84%
15:00 +8°C° 0.1 mm 2 mps 723 mmHg 87%
16:00 +7°C° 1 mm 2 mps 723 mmHg 89%
17:00 +6°C° 1 mm 2 mps 723 mmHg 92%
18:00 +6°C° 1 mm 2 mps 724 mmHg 95%
19:00 +4°C° 1.1 mm 3 mps 724 mmHg 96%
20:00 +3°C° 1.1 mm 3 mps 724 mmHg 96%
21:00 +2°C° 1.1 mm 3 mps 725 mmHg 96%
22:00 +2°C° 1.1 mm 3 mps 725 mmHg 95%
23:00 +2°C° 1.1 mm 3 mps 726 mmHg 95%

Tomorrow, 23 January, Saturday

Time Temperature Precipitation Wind Pressure Humidity
00:00 +2°C° 1.1 mm 3 mps 727 mmHg 94%
01:00 +2°C° 0.2 mm 3 mps 727 mmHg 94%
02:00 +2°C° 0.2 mm 3 mps 727 mmHg 94%
03:00 +2°C° 0.2 mm 3 mps 728 mmHg 93%
04:00 +3°C° 0 mm 2 mps 728 mmHg 93%
05:00 +2°C° 0 mm 2 mps 728 mmHg 93%
06:00 +2°C° 0 mm 2 mps 728 mmHg 93%
07:00 +2°C° 0 mm 2 mps 728 mmHg 92%
08:00 +3°C° 0 mm 2 mps 728 mmHg 91%
09:00 +3°C° 0 mm 2 mps 727 mmHg 89%
10:00 +4°C° 0 mm 2 mps 727 mmHg 87%
11:00 +4°C° 0 mm 2 mps 727 mmHg 84%
12:00 +5°C° 0 mm 2 mps 727 mmHg 81%
13:00 +5°C° 0 mm 2 mps 726 mmHg 81%
14:00 +6°C° 0 mm 1 mps 726 mmHg 81%
15:00 +6°C° 0 mm 1 mps 726 mmHg 82%
16:00 +5°C° 0 mm 1 mps 726 mmHg 84%
17:00 +4°C° 0 mm 1 mps 726 mmHg 87%
18:00 +3°C° 0 mm 1 mps 726 mmHg 89%
19:00 +3°C° 0.2 mm 1 mps 726 mmHg 90%
20:00 +3°C° 0.2 mm 1 mps 726 mmHg 91%
21:00 +3°C° 0.2 mm 1 mps 726 mmHg 92%
22:00 +2°C° 0.5 mm 2 mps 726 mmHg 93%
23:00 +2°C° 0.5 mm 2 mps 727 mmHg 94%

Day after tomorrow, 24 January, Sunday

Time Temperature Precipitation Wind Pressure Humidity
00:00 +1°C° 0.5 mm 3 mps 727 mmHg 95%
01:00 +1°C° 0.9 mm 3 mps 727 mmHg 94%
02:00 0°C° 0.9 mm 3 mps 727 mmHg 93%
03:00 0°C° 0.9 mm 3 mps 728 mmHg 92%
04:00 -1°C° 0.2 mm 3 mps 728 mmHg 93%
05:00 -1°C° 0.2 mm 2 mps 729 mmHg 94%
06:00 -1°C° 0.2 mm 2 mps 730 mmHg 94%
07:00 -1°C° 0.1 mm 2 mps 730 mmHg 92%
08:00 +1°C° 0.1 mm 2 mps 730 mmHg 89%
09:00 +1°C° 0.1 mm 2 mps 731 mmHg 86%
10:00 +2°C° 0 mm 2 mps 731 mmHg 82%
11:00 +2°C° 0 mm 2 mps 730 mmHg 77%
12:00 +3°C° 0 mm 2 mps 730 mmHg 73%
13:00 +3°C° 0 mm 2 mps 730 mmHg 74%
14:00 +4°C° 0 mm 1 mps 729 mmHg 76%
15:00 +4°C° 0 mm 1 mps 729 mmHg 78%
16:00 +3°C° 0.1 mm 1 mps 729 mmHg 81%
17:00 +1°C° 0.1 mm 2 mps 729 mmHg 84%
18:00 +1°C° 0.1 mm 2 mps 729 mmHg 87%
19:00 +1°C° 0.6 mm 2 mps 729 mmHg 89%
20:00 +1°C° 0.6 mm 2 mps 729 mmHg 92%
21:00 0°C° 0.6 mm 3 mps 729 mmHg 95%
22:00 -1°C° 0.4 mm 2 mps 729 mmHg 95%
23:00 -1°C° 0.4 mm 2 mps 729 mmHg 95%

25 January, Monday

Time Temperature Precipitation Wind Pressure Humidity
00:00 -1°C° 0.4 mm 2 mps 730 mmHg 95%
01:00 -1°C° 0.2 mm 2 mps 730 mmHg 95%
02:00 -2°C° 0.2 mm 2 mps 731 mmHg 95%
03:00 -2°C° 0.2 mm 2 mps 731 mmHg 95%
04:00 -2°C° 0.2 mm 2 mps 732 mmHg 94%
05:00 -2°C° 0.2 mm 2 mps 733 mmHg 94%
06:00 -2°C° 0.2 mm 2 mps 734 mmHg 94%
07:00 -1°C° 0.1 mm 2 mps 735 mmHg 92%
08:00 -1°C° 0.1 mm 3 mps 736 mmHg 89%
09:00 -1°C° 0.1 mm 3 mps 736 mmHg 87%
10:00 -1°C° 0.1 mm 4 mps 737 mmHg 84%
11:00 -1°C° 0.1 mm 4 mps 737 mmHg 81%
12:00 -1°C° 0.1 mm 4 mps 737 mmHg 77%
13:00 -1°C° 0.6 mm 4 mps 737 mmHg 83%
14:00 -1°C° 0.6 mm 4 mps 737 mmHg 89%
15:00 -1°C° 0.6 mm 5 mps 737 mmHg 94%
16:00 -1°C° 0.9 mm 4 mps 737 mmHg 95%
17:00 -1°C° 0.9 mm 4 mps 738 mmHg 95%
18:00 -1°C° 0.9 mm 4 mps 738 mmHg 95%
19:00 -1°C° 0.5 mm 4 mps 739 mmHg 96%
20:00 -1°C° 0.5 mm 4 mps 739 mmHg 96%
21:00 -1°C° 0.5 mm 4 mps 739 mmHg 96%
22:00 -1°C° 0.3 mm 4 mps 740 mmHg 96%
23:00 -1°C° 0.3 mm 4 mps 740 mmHg 96%

26 January, Tuesday

Time Temperature Precipitation Wind Pressure Humidity
00:00 -1°C° 0.3 mm 4 mps 740 mmHg 96%
01:00 -1°C° 0.1 mm 4 mps 740 mmHg 95%
02:00 -2°C° 0.1 mm 4 mps 741 mmHg 94%
03:00 -2°C° 0.1 mm 4 mps 741 mmHg 92%
04:00 -1°C° 0 mm 3 mps 741 mmHg 92%
05:00 -1°C° 0 mm 3 mps 741 mmHg 92%
06:00 -1°C° 0 mm 3 mps 742 mmHg 93%
07:00 0°C° 0 mm 3 mps 742 mmHg 92%
08:00 0°C° 0 mm 3 mps 742 mmHg 92%
09:00 0°C° 0 mm 3 mps 743 mmHg 92%
10:00 +1°C° 0.1 mm 3 mps 743 mmHg 90%
11:00 +1°C° 0.1 mm 3 mps 743 mmHg 89%
12:00 +2°C° 0.1 mm 3 mps 743 mmHg 88%
13:00 +2°C° 0 mm 3 mps 743 mmHg 88%
14:00 +2°C° 0 mm 3 mps 742 mmHg 89%
15:00 +2°C° 0 mm 3 mps 742 mmHg 89%
16:00 +1°C° 0 mm 3 mps 742 mmHg 90%
17:00 +1°C° 0 mm 3 mps 742 mmHg 92%
18:00 +1°C° 0 mm 3 mps 742 mmHg 93%
19:00 +1°C° 0.4 mm 3 mps 741 mmHg 94%
20:00 0°C° 0.4 mm 4 mps 741 mmHg 95%
21:00 0°C° 0.4 mm 4 mps 741 mmHg 96%
22:00 0°C° 0.4 mm 4 mps 740 mmHg 97%
23:00 0°C° 0.4 mm 5 mps 739 mmHg 97%

27 January, Wednesday

Time Temperature Precipitation Wind Pressure Humidity
00:00 0°C° 0.4 mm 5 mps 739 mmHg 97%
01:00 +1°C° 0.3 mm 5 mps 738 mmHg 96%
02:00 +1°C° 0.3 mm 5 mps 738 mmHg 96%
03:00 +2°C° 0.3 mm 5 mps 738 mmHg 95%
04:00 +2°C° 0.4 mm 5 mps 738 mmHg 95%
05:00 +2°C° 0.4 mm 5 mps 739 mmHg 94%
06:00 +3°C° 0.4 mm 5 mps 739 mmHg 94%
07:00 +4°C° 0.1 mm 4 mps 740 mmHg 94%
08:00 +4°C° 0.1 mm 4 mps 741 mmHg 94%
09:00 +4°C° 0.1 mm 4 mps 741 mmHg 93%
10:00 +4°C° 0.1 mm 4 mps 742 mmHg 92%
11:00 +4°C° 0.1 mm 4 mps 742 mmHg 91%
12:00 +5°C° 0.1 mm 4 mps 743 mmHg 90%
13:00 +5°C° 0.1 mm 3 mps 743 mmHg 90%
14:00 +4°C° 0.1 mm 3 mps 743 mmHg 91%
15:00 +4°C° 0.1 mm 3 mps 743 mmHg 91%
16:00 +4°C° 0 mm 3 mps 744 mmHg 92%
17:00 +4°C° 0 mm 3 mps 744 mmHg 92%
18:00 +3°C° 0 mm 3 mps 744 mmHg 93%
19:00 +3°C° 0 mm 3 mps 744 mmHg 93%
20:00 +3°C° 0 mm 3 mps 744 mmHg 93%
21:00 +3°C° 0 mm 3 mps 744 mmHg 93%
22:00 +3°C° 0 mm 3 mps 744 mmHg 93%
23:00 +3°C° 0 mm 3 mps 743 mmHg 93%
Show more